Eau Claire, WI

3:07 AM CDT on May 27, 2017 (GMT -0500)
Chippewa Valley Regional

Weather History for KEAU - December, 2011

Change the Weather History Date:

Sunday, December 25, 2011

  Actual Average Record
Temperature  
Mean Temperature 31 °F 16 °F  
Max Temperature 39 °F 25 °F 45 °F (1994)
Min Temperature 23 °F 8 °F -27 °F (1968)
Degree Days  
Heating Degree Days 34 49  
Month to date heating degree days 1021 1134  
Since 1 July heating degree days 2529 2880  
Cooling Degree Days 0 0  
Month to date cooling degree days 0 0  
Year to date cooling degree days 655 579  
Moisture  
Dew Point 23 °F    
Average Humidity 74    
Maximum Humidity 88    
Minimum Humidity 59    
Precipitation  
Precipitation 0.00 in 0.03 in 0.72 in (1945)
Month to date precipitation 1.16 0.84  
Year to date precipitation 31.86 30.82  
Snow  
Snow 0.00 in 0.30 in 8.00 in (1945)
Month to date snowfall 6.6 7.6  
Since 1 July snowfall 7.8 13.9  
Snow Depth -    
Sea Level Pressure  
Sea Level Pressure 30.14 in    
Wind  
Wind Speed 9 mph (West)    
Max Wind Speed 22 mph    
Max Gust Speed 31 mph    
Visibility 10 miles    
Events      
T = Trace of Precipitation, MM = Missing Value Source: NWS Daily Summary

Daily Weather History Graph

Daily Weather History Graph

Search for Another Location

Airport or City:

Trip Planner

Search our weather history database for the weather conditions in past years. The results will help you decide how hot, cold, wet, or windy it might be!

Date:

Astronomy

Dec. 25, 2011 Rise Set
Actual Time 7:42 AM CST 4:29 PM CST
Civil Twilight 7:08 AM CST 5:03 PM CST
Nautical Twilight 6:31 AM CST 5:40 PM CST
Astronomical Twilight 5:55 AM CST 6:16 PM CST
Moon 8:18 AM CST (12/25) 5:53 PM CST (12/25)
Length of Visible Light 9h 54m
Length of Day
8h 47m
New Moon, 1% of the Moon is Illuminated
Dec 25
New Moon
Jan 1
First Quarter
Jan 9
Full
Jan 16
Last Quarter
Jan 23
New

Hourly Weather History & Observations

Time (CST) Temp. Windchill Dew Point Humidity Pressure Visibility Wind Dir Wind Speed Gust Speed Precip Events Conditions
12:56 AM 34.0 °F 25.5 °F 21.9 °F 61% 29.95 in 10.0 mi WSW 11.5 mph - N/A   Clear
1:56 AM 32.0 °F 24.2 °F 21.9 °F 66% 29.96 in 10.0 mi West 9.2 mph - N/A   Clear
2:56 AM 32.0 °F 24.2 °F 21.9 °F 66% 29.96 in 10.0 mi WSW 9.2 mph - N/A   Clear
3:56 AM 33.1 °F 23.9 °F 21.9 °F 64% 29.97 in 10.0 mi West 12.7 mph 20.7 mph N/A   Clear
4:56 AM 33.1 °F 26.1 °F 23.0 °F 66% 29.99 in 10.0 mi West 8.1 mph - N/A   Scattered Clouds
5:56 AM 33.8 °F 25.8 °F 24.8 °F 70% 30.00 in 10.0 mi WNW 10.4 mph 20.7 mph N/A   Mostly Cloudy
6:56 AM 33.1 °F 26.1 °F 24.1 °F 70% 30.06 in 10.0 mi West 8.1 mph - N/A   Mostly Cloudy
7:56 AM 32.0 °F 23.6 °F 24.1 °F 73% 30.09 in 10.0 mi West 10.4 mph - N/A   Partly Cloudy
8:56 AM 34.0 °F 25.5 °F 25.0 °F 70% 30.11 in 10.0 mi West 11.5 mph - N/A   Clear
9:56 AM 36.0 °F 27.5 °F 26.1 °F 67% 30.15 in 10.0 mi WNW 12.7 mph 21.9 mph N/A   Mostly Cloudy
10:56 AM 37.9 °F 27.9 °F 26.1 °F 62% 30.17 in 10.0 mi WNW 19.6 mph 27.6 mph N/A   Overcast
11:56 AM 37.0 °F 29.3 °F 26.1 °F 65% 30.18 in 10.0 mi WNW 11.5 mph - N/A   Overcast
12:56 PM 37.0 °F 29.8 °F 26.1 °F 65% 30.20 in 10.0 mi NW 10.4 mph - N/A   Overcast
1:56 PM 37.4 °F 28.2 °F 24.8 °F 60% 30.18 in 10.0 mi WNW 16.1 mph 21.9 mph N/A   Overcast
2:56 PM 37.9 °F 30.5 °F 25.0 °F 60% 30.23 in 10.0 mi WNW 11.5 mph - N/A   Scattered Clouds
3:56 PM 37.0 °F 29.8 °F 24.1 °F 59% 30.25 in 10.0 mi NW 10.4 mph - N/A   Clear
4:56 PM 34.0 °F - 23.0 °F 64% 30.27 in 10.0 mi Calm Calm - N/A   Clear
5:56 PM 27.0 °F - 21.9 °F 81% 30.27 in 10.0 mi Calm Calm - N/A   Clear
6:56 PM 27.0 °F - 21.9 °F 81% 30.27 in 10.0 mi Calm Calm - N/A   Clear
7:56 PM 25.0 °F 18.1 °F 21.9 °F 88% 30.26 in 10.0 mi SSW 5.8 mph - N/A   Clear
8:56 PM 24.1 °F 17.0 °F 21.0 °F 88% 30.24 in 10.0 mi South 5.8 mph - N/A   Clear
9:56 PM 24.1 °F 19.7 °F 21.0 °F 88% 30.24 in 10.0 mi SSW 3.5 mph - N/A   Clear
10:56 PM 25.0 °F 19.3 °F 21.0 °F 85% 30.22 in 10.0 mi South 4.6 mph - N/A   Clear
11:56 PM 24.1 °F 18.2 °F 19.9 °F 84% 30.21 in 10.0 mi South 4.6 mph - N/A   Clear